Terminal Aerodrome Forecast
Issued by NWS

Home | Current Version | Previous Version | Graphics & Text | Print | Product List | Glossary On
Versions: 1 2 3 4 5 6 7 8 9 10 11 12 13 14 15 16 17 18 19 20 21 22 23 24 25 26 27 28 29 30 31 32 33
000
FTUS43 KLOT 271138
TAFORD
TAF
KORD 271138Z 2712/2818 33005KT 2SM -DZ BR OVC004
     FM271400 05005KT 3SM BR OVC005
     FM271600 06007KT 6SM BR OVC007
      TEMPO 2722/2724 6SM -SHRA
     FM280100 03011KT 6SM BR FEW007 BKN015=

USA.gov is the U.S. government's official web portal to all federal, state and local government web resources and services.